Location: Gleizolles
(44.4833°N, 6.7667°E)
Time: 12:10:13
(UTC+00:00)

Envisat - Pass Details

Date: 16 December 2021
Orbit: 764 x 766 km, 98.2° (Epoch: 28 January)

Event Time Altitude Azimuth Distance (km) Brightness Sun altitude
Rises 03:06:38 0° 33° (NNE) 3,241 6.7 -41.1°
Reaches altitude 10° 03:10:17 10° 60° (ENE) 2,308 6.0 -40.5°
Maximum altitude 03:12:39 13° 88° (E) 2,085 5.9 -40.0°
Drops below altitude 10° 03:15:01 10° 116° (ESE) 2,299 6.0 -39.6°
Sets 03:18:38 0° 143° (SE) 3,218 6.6 -39.0°
